Location: Agadir Irigdalene
(31.2522°N, 8.7797°W)
Time: 16:22:32
(UTC+00:00)

Cosmos 1538 Rocket - Pass Details

Date: 01 December 2020
Orbit: 753 x 791 km, 74.0° (Epoch: 26 January)

Event Time Altitude Azimuth Distance (km) Brightness Sun altitude
Rises 17:46:55 0° 189° (S) 3,256 7.7 -3.7°
Reaches altitude 10° 17:49:18 10° 187° (S) 2,336 7.0 -4.2°
Maximum altitude 17:54:35 70° 104° (ESE) 837 4.1 -5.2°
Drops below altitude 10° 17:59:55 10° 21° (NNE) 2,358 6.1 -6.3°
Sets 18:02:20 0° 20° (NNE) 3,291 6.9 -6.8°
